TimeEDT,TemperatureF,Dew PointF,Humidity,Sea Level PressureIn,VisibilityMPH,Wind Direction,Wind SpeedMPH,Gust SpeedMPH,PrecipitationIn,Events,Conditions,WindDirDegrees,DateUTC
12:53 AM,68.0,66.0,93,30.10,3.0,Calm,Calm,-,N/A,,Clear,0,2012-10-04 04:53:00
1:27 AM,66.2,64.4,94,30.12,1.8,Calm,Calm,-,N/A,,Clear,0,2012-10-04 05:27:00
1:35 AM,66.2,64.4,94,30.13,0.2,Calm,Calm,-,N/A,Fog,Fog,0,2012-10-04 05:35:00
1:49 AM,66.2,64.4,94,30.12,1.2,Calm,Calm,-,N/A,,Scattered Clouds,0,2012-10-04 05:49:00
1:53 AM,66.9,64.9,93,30.11,1.8,Calm,Calm,-,N/A,,Scattered Clouds,0,2012-10-04 05:53:00
2:11 AM,66.2,64.4,94,30.13,0.2,Calm,Calm,-,N/A,Fog,Fog,0,2012-10-04 06:11:00
2:21 AM,66.2,64.4,94,30.13,2.0,Calm,Calm,-,N/A,,Mostly Cloudy,0,2012-10-04 06:21:00
2:25 AM,66.2,66.2,100,30.13,3.0,Calm,Calm,-,N/A,,Scattered Clouds,0,2012-10-04 06:25:00
2:33 AM,66.2,64.4,94,30.13,3.0,Calm,Calm,-,N/A,,Mostly Cloudy,0,2012-10-04 06:33:00
2:40 AM,66.2,64.4,94,30.13,2.0,Calm,Calm,-,N/A,,Mostly Cloudy,0,2012-10-04 06:40:00
2:48 AM,66.2,66.2,100,30.12,1.8,Calm,Calm,-,N/A,,Mostly Cloudy,0,2012-10-04 06:48:00
2:53 AM,66.9,64.9,93,30.11,2.0,Calm,Calm,-,N/A,,Mostly Cloudy,0,2012-10-04 06:53:00
2:57 AM,66.2,64.4,94,30.12,3.0,Calm,Calm,-,N/A,,Scattered Clouds,0,2012-10-04 06:57:00
3:48 AM,66.2,64.4,94,30.11,2.5,NNE,3.5,-,N/A,,Mostly Cloudy,20,2012-10-04 07:48:00
3:53 AM,66.0,64.9,96,30.09,2.5,NNE,3.5,-,N/A,,Mostly Cloudy,30,2012-10-04 07:53:00
4:07 AM,66.2,64.4,94,30.11,3.0,Calm,Calm,-,N/A,,Scattered Clouds,0,2012-10-04 08:07:00
4:16 AM,66.2,64.4,94,30.12,2.5,Calm,Calm,-,N/A,,Mostly Cloudy,0,2012-10-04 08:16:00
4:27 AM,66.2,64.4,94,30.11,3.0,Calm,Calm,-,N/A,,Scattered Clouds,0,2012-10-04 08:27:00
4:53 AM,66.0,64.0,93,30.10,4.0,Calm,Calm,-,N/A,,Clear,0,2012-10-04 08:53:00
5:53 AM,66.9,64.9,93,30.11,5.0,Calm,Calm,-,N/A,,Partly Cloudy,0,2012-10-04 09:53:00
6:53 AM,66.0,64.0,93,30.10,5.0,Calm,Calm,-,0.00,,Partly Cloudy,0,2012-10-04 10:53:00
7:53 AM,66.9,64.9,93,30.11,4.0,Calm,Calm,-,N/A,,Scattered Clouds,0,2012-10-04 11:53:00
8:53 AM,69.1,66.0,90,30.12,4.0,Calm,Calm,-,N/A,,Mostly Cloudy,0,2012-10-04 12:53:00
9:53 AM,71.1,66.9,87,30.12,4.0,Calm,Calm,-,0.00,Rain,Light Rain,0,2012-10-04 13:53:00
11:53 AM,73.0,68.0,84,30.09,4.0,West,3.5,-,N/A,,Haze,280,2012-10-04 15:53:00
12:03 PM,73.4,69.8,88,30.12,4.0,WSW,5.8,-,N/A,,Partly Cloudy,240,2012-10-04 16:03:00
12:53 PM,73.0,69.1,87,30.07,4.0,Calm,Calm,-,0.00,,Partly Cloudy,0,2012-10-04 16:53:00
1:53 PM,73.0,68.0,84,30.06,5.0,WSW,3.5,-,N/A,,Haze,250,2012-10-04 17:53:00
2:53 PM,73.9,69.1,85,30.05,5.0,SW,3.5,-,N/A,,Haze,230,2012-10-04 18:53:00
3:53 PM,75.0,68.0,79,30.03,8.0,SW,3.5,-,N/A,,Partly Cloudy,220,2012-10-04 19:53:00
4:35 PM,75.2,69.8,83,30.06,7.0,Calm,Calm,-,N/A,,Mostly Cloudy,0,2012-10-04 20:35:00
4:53 PM,73.9,69.1,85,30.03,7.0,SW,3.5,-,N/A,,Mostly Cloudy,220,2012-10-04 20:53:00
6:53 PM,73.0,66.0,79,30.03,9.0,North,6.9,-,N/A,,Partly Cloudy,350,2012-10-04 22:53:00
7:53 PM,69.1,64.9,87,30.04,10.0,NNW,3.5,-,N/A,,Clear,340,2012-10-04 23:53:00
8:53 PM,66.9,64.0,90,30.05,10.0,NNW,3.5,-,N/A,,Clear,330,2012-10-05 00:53:00
9:53 PM,66.0,63.0,90,30.06,10.0,NW,3.5,-,N/A,,Clear,320,2012-10-05 01:53:00
10:53 PM,64.9,63.0,93,30.06,8.0,Calm,Calm,-,N/A,,Clear,0,2012-10-05 02:53:00
11:53 PM,63.0,61.0,93,30.05,6.0,NW,3.5,-,N/A,,Clear,320,2012-10-05 03:53:00